Probability
0 0 0 0 0 0 0 0 0 0 0 0 0 1 3 4 2 1 2 3 3 2 1 0 0 1 2 3 3 3 3 1 0 0 0 0 0 0 0 0 0 0 0
0 0 0 0 0 0 0 0 0 0 0 0 0 1 4 4 2 1 2 3 2 2 1 0 0 1 2 3 3 3 3 2 1 0 0 0 0 0 0 0 0 0 0
0 0 0 0 0 0 0 0 0 1 1 1 0 1 4 4 1 1 2 2 1 1 1 1 0 1 2 2 3 3 3 2 1 0 0 0 0 0 0 0 0 0 0
0 0 0 0 0 0 0 0 1 2 2 1 0 1 2 2 0 1 2 2 1 1 1 1 0 0 1 1 1 2 1 1 0 0 0 0 0 0 0 0 0 0 0
1 0 0 0 0 0 0 0 1 2 2 1 0 1 1 1 0 0 1 1 1 0 1 1 1 0 0 0 0 0 0 0 0 0 0 0 0 0 0 0 0 0 0
2 1 0 0 0 0 0 0 0 1 2 1 0 0 0 1 1 0 0 0 0 0 1 2 1 0 0 0 0 0 0 0 0 0 0 0 0 0 0 0 0 0 0
1 1 1 2 1 0 0 0 0 1 1 1 0 0 0 0 0 0 0 0 0 1 2 2 1 0 0 0 0 0 0 0 0 0 0 0 0 0 0 0 0 0 0
0 1 2 3 2 1 0 0 0 1 1 0 0 0 0 0 0 0 0 0 0 1 1 1 0 0 0 0 0 0 0 0 0 0 0 0 0 0 0 0 0 0 0
1 2 3 3 3 2 1 1 1 1 0 0 0 0 0 0 0 0 0 0 0 0 0 0 0 0 0 0 0 0 0 0 0 0 0 0 0 0 0 0 0 0 0
0 1 3 4 4 3 3 3 2 1 0 0 0 0 0 0 0 0 0 0 0 0 0 0 0 0 0 0 0 0 0 0 0 0 0 0 0 0 0 0 0 0 0
1 2 4 4 4 4 3 4 4 3 1 0 0 0 0 0 0 0 0 0 0 0 0 0 0 0 0 0 0 0 0 0 0 0 0 1 2 1 1 1 0 0 0
2 2 2 3 3 3 3 3 5 3 1 1 1 1 0 0 0 0 0 1 0 0 0 0 0 0 0 0 0 0 0 0 0 0 1 2 3 2 2 2 1 0 0
2 2 1 2 3 4 3 3 4 3 2 2 2 1 0 0 0 0 0 1 1 0 0 0 0 0 0 0 0 0 0 0 0 0 1 3 4 3 2 2 2 0 0
4 4 3 4 6 7 6 5 5 4 3 3 3 1 1 1 0 0 0 0 1 0 0 0 0 0 0 0 0 0 0 0 0 0 1 3 3 3 3 3 2 1 1
11 9 8 9 10 10 9 9 7 5 4 4 4 2 1 1 0 0 0 0 0 0 0 1 1 0 0 0 0 0 0 0 0 1 2 4 4 4 3 3 3 2 2
19 18 15 12 11 11 10 10 9 6 5 5 4 3 2 1 0 0 1 1 0 0 1 2 2 1 1 1 1 0 0 0 1 2 4 5 6 6 5 4 4 3 2
29 27 21 14 12 11 8 8 8 6 6 6 5 4 4 2 1 1 1 1 1 1 3 4 3 1 1 2 1 0 0 0 1 2 3 4 6 6 6 5 5 4 3
37 34 25 18 18 15 10 9 8 7 8 9 7 6 6 3 2 2 2 2 3 4 4 3 2 1 1 1 1 0 0 1 2 3 2 3 4 5 5 6 7 7 6
45 40 31 25 25 23 17 13 10 9 12 12 10 9 7 4 3 3 3 5 7 7 4 2 1 1 1 1 0 0 1 1 2 2 2 3 3 4 5 6 10 10 9
51 46 37 31 28 26 23 19 15 14 16 15 14 13 10 6 4 4 4 6 8 8 6 4 3 3 2 1 0 0 1 1 1 2 4 4 5 5 6 8 13 14 12
54 51 44 36 30 28 27 24 21 21 19 18 18 15 11 9 7 5 4 5 7 8 6 5 5 4 3 1 0 0 1 1 1 3 5 7 7 7 8 12 17 18 17
58 56 51 43 37 33 30 27 25 23 20 19 20 17 13 11 8 6 4 4 5 6 7 7 7 6 4 2 1 0 0 1 2 4 7 11 11 11 11 13 17 20 21
62 59 54 49 45 39 34 29 28 26 23 23 24 22 16 11 9 7 4 3 2 4 7 8 8 7 6 4 3 2 2 2 3 4 8 10 12 13 13 12 14 18 20
59 57 56 55 51 44 37 31 31 31 30 29 29 26 20 13 10 7 4 3 3 5 7 8 8 7 6 4 4 5 4 4 4 5 6 6 8 12 13 12 12 15 18
54 56 59 61 56 47 39 35 34 34 34 34 34 31 26 21 15 10 8 8 7 6 8 9 8 7 6 5 4 4 5 5 6 6 6 5 6 9 11 12 12 15 18
53 58 63 64 59 50 42 38 37 35 34 35 36 35 32 29 22 14 12 13 10 7 8 10 10 9 7 6 4 4 4 5 6 6 6 6 7 7 9 11 13 16 19
Wind_Speed
10 10 10 10 10 10 11 11 12 12 12 12 12 13 13 14 14 14 15 14 14 14 14 14 14 13 13 13 12 12 12 12 13 13 13 13 12 11 10 10 11 10 12
13 12 12 11 10 11 11 12 11 11 11 12 12 12 12 13 14 14 14 14 13 13 13 13 13 13 13 12 11 11 11 11 11 11 12 11 11 10 9 8 10 9 12
14 13 11 10 11 11 12 12 12 12 12 11 11 11 11 12 12 13 13 13 13 12 12 12 12 12 12 11 10 10 9 9 9 10 10 8 9 10 10 11 12 11 11
14 13 12 11 11 12 12 12 12 12 12 12 11 11 11 11 12 12 12 12 12 12 12 11 12 11 10 10 9 8 7 7 7 8 5 7 7 10 10 11 11 10 10
15 14 13 12 11 12 11 11 11 11 12 12 11 11 10 10 11 11 11 11 11 11 11 11 11 11 10 9 8 7 6 5 5 4 4 7 6 10 11 11 10 10 10
15 14 13 12 12 11 11 11 11 10 11 11 11 10 10 10 10 11 11 11 11 11 11 10 10 10 9 7 6 5 5 4 3 3 5 7 7 9 10 10 10 10 9
15 14 13 13 12 11 11 11 10 10 10 10 10 10 10 10 10 10 10 11 10 10 10 10 10 9 7 6 5 4 4 3 3 3 6 7 8 11 11 10 10 10 9
15 14 13 13 12 12 11 11 10 10 10 10 10 9 9 9 10 10 10 10 10 10 10 10 9 8 6 5 3 3 3 4 1 5 7 8 10 11 10 10 10 9 9
13 14 12 11 11 12 11 10 10 10 10 10 9 9 9 9 9 10 10 10 10 9 9 9 8 7 6 4 3 3 3 5 3 3 8 7 10 11 11 10 9 9 8
9 11 11 11 11 10 10 10 10 10 10 9 9 9 9 9 9 10 10 9 9 9 9 8 8 7 5 4 4 4 4 5 3 3 5 8 12 11 11 10 9 9 8
7 7 9 10 10 10 11 11 10 10 9 9 8 8 8 5 7 7 9 10 9 9 9 8 7 7 6 5 5 5 5 3 1 4 5 11 12 11 11 9 9 9 9
8 8 6 7 8 8 8 9 6 7 6 5 5 6 4 3 3 7 9 10 10 9 8 8 7 6 5 4 5 6 4 4 2 5 7 14 12 11 10 9 9 9 9
8 7 8 7 6 6 5 5 4 4 5 4 5 5 3 3 4 5 4 6 6 8 5 6 6 4 4 3 3 4 4 2 1 5 8 13 12 11 11 10 9 9 9
9 8 8 8 6 4 4 3 4 3 4 4 4 5 3 2 2 3 2 4 4 3 3 4 3 4 3 3 3 3 3 1 1 4 7 12 12 11 11 10 9 9 9
9 8 8 8 6 4 2 1 3 4 4 5 3 3 3 3 3 3 2 2 3 3 3 3 2 2 1 1 2 1 1 1 2 4 6 12 12 11 11 11 10 10 10
8 8 8 8 6 4 2 0 1 3 3 4 4 4 3 2 3 2 2 2 2 2 2 2 2 2 2 1 1 2 2 1 2 4 6 8 12 12 11 11 11 11 11
8 8 8 8 7 5 4 3 2 2 4 4 3 4 3 3 4 2 2 2 2 2 2 2 2 2 2 2 2 2 2 2 2 3 5 5 7 10 11 11 11 11 11
9 8 6 7 9 6 3 2 1 1 3 3 3 3 4 3 4 2 1 2 2 2 2 2 2 1 1 1 1 2 1 1 2 3 3 4 5 6 9 12 11 11 11
9 8 6 5 7 7 5 3 2 1 2 2 3 3 3 3 3 3 1 1 2 2 2 3 2 2 2 2 2 2 2 2 2 4 3 4 4 5 6 9 12 11 12
10 8 7 6 6 6 4 3 2 2 2 2 2 3 4 3 4 3 2 3 2 1 1 0 1 1 1 2 3 2 2 2 3 2 3 3 3 5 6 6 7 8 11
10 9 8 7 7 5 4 4 3 3 2 2 3 4 4 3 3 2 1 2 2 1 1 2 2 2 2 2 1 1 2 3 3 3 3 2 3 3 4 6 6 5 5
11 10 9 7 8 6 4 3 3 3 3 3 2 4 4 3 3 4 2 2 2 2 2 2 2 1 2 2 2 1 2 2 1 3 3 4 4 3 4 6 5 5 5
13 11 10 9 8 7 6 4 3 3 2 2 3 3 4 4 4 3 3 3 2 2 2 3 3 4 3 2 2 2 1 1 1 2 3 3 3 3 3 3 5 5 6
13 12 9 9 8 7 6 5 6 5 4 4 3 3 4 4 4 3 3 3 2 1 2 3 3 3 3 3 2 2 2 1 1 1 2 1 2 3 3 3 3 3 4
13 13 11 9 8 7 6 6 5 4 3 3 4 4 4 4 4 4 3 3 2 2 2 2 1 2 2 3 2 2 2 2 3 2 2 2 2 1 2 2 2 2 3
12 12 12 10 9 8 7 6 6 5 4 3 4 4 4 3 3 4 4 3 2 2 2 2 2 3 3 3 2 2 2 2 2 2 3 3 2 2 2 1 1 1 2
Wind_Direction
102 99 97 95 91 90 92 91 91 94 97 97 96 98 99 100 101 102 103 104 106 107 106 106 106 105 104 106 105 103 101 101 102 104 105 105 106 106 107 112 111 103 111
106 102 98 96 97 98 99 96 93 93 98 99 99 100 102 104 106 106 108 108 109 108 108 108 108 108 107 107 107 108 109 108 112 115 113 109 105 104 103 107 107 112 116
109 108 102 100 101 102 100 97 95 95 100 103 103 102 103 104 107 110 111 113 113 113 113 114 115 113 113 113 112 116 120 125 133 132 125 111 106 106 104 103 109 117 118
111 109 102 103 103 104 102 100 99 96 98 101 103 104 106 109 109 110 112 113 114 116 117 119 120 117 116 118 120 124 131 141 152 151 141 123 121 117 116 114 117 120 122
105 105 107 106 108 108 107 105 104 102 101 101 101 105 108 110 112 111 111 112 113 115 119 123 123 121 121 124 131 141 149 158 172 177 128 112 110 126 126 125 124 122 122
113 110 110 111 114 113 111 109 107 106 105 105 104 106 113 116 118 117 115 114 115 118 122 124 122 123 126 132 143 155 170 179 196 163 125 121 121 133 130 131 128 126 126
112 113 118 118 117 116 114 112 110 107 109 109 109 109 114 121 122 122 119 117 120 122 123 121 123 125 130 139 152 168 190 219 229 133 117 114 124 133 134 135 131 131 131
114 115 119 124 124 122 120 120 117 112 113 115 116 116 115 120 129 123 123 121 121 124 126 127 128 129 134 142 161 193 228 268 195 123 116 117 133 136 136 137 137 138 138
116 124 134 136 131 129 127 127 124 120 116 120 121 124 127 127 127 128 128 127 127 127 131 134 135 137 142 151 181 222 255 277 287 139 123 124 137 140 142 144 144 145 144
118 126 138 139 140 143 139 137 133 131 131 131 133 136 136 137 139 139 139 138 135 134 136 138 143 146 156 172 201 232 260 281 248 125 113 131 142 145 148 151 153 154 154
118 123 135 136 147 149 142 142 145 146 146 148 150 156 156 154 149 149 140 143 144 142 143 147 154 162 172 189 212 234 255 251 180 112 116 137 147 151 154 156 159 160 162
131 124 125 129 140 136 132 139 154 149 150 167 151 159 167 151 142 137 144 151 152 153 155 165 173 181 197 194 207 224 242 239 171 122 134 147 151 157 160 163 166 169 171
127 123 127 119 108 108 120 138 140 137 141 156 147 152 163 154 153 144 151 157 164 171 173 168 187 207 205 197 191 207 232 252 157 124 142 151 157 162 167 171 175 179 179
123 125 116 109 97 85 99 126 142 141 142 140 150 164 156 159 152 138 152 170 170 179 176 172 198 206 198 197 202 210 214 222 128 116 147 159 164 169 173 178 182 186 186
128 124 113 111 104 97 85 138 134 128 140 142 138 154 158 158 134 134 155 172 174 168 167 185 202 178 171 212 232 225 218 197 133 133 148 173 175 177 180 184 189 191 193
131 127 123 126 126 126 144 144 113 139 140 135 150 163 165 135 122 134 154 166 165 165 164 177 188 171 191 218 238 246 241 211 167 148 157 175 182 185 189 191 195 198 199
138 136 139 143 140 152 166 180 159 160 144 138 137 142 140 136 139 160 169 166 160 176 164 171 199 179 190 200 218 232 235 221 201 175 164 170 182 191 194 197 199 202 203
145 142 158 157 147 157 164 184 152 143 122 125 134 136 143 145 152 172 176 173 173 178 169 180 195 194 205 214 220 240 241 200 209 199 187 182 176 182 194 200 201 203 205
146 146 155 145 145 157 162 170 173 124 106 129 135 141 154 165 158 175 181 163 189 196 191 208 161 196 209 220 225 220 226 213 216 222 206 197 183 172 176 193 201 202 206
149 151 156 157 154 158 159 160 180 156 154 165 149 148 157 180 175 183 185 183 204 190 186 176 153 216 223 238 254 239 241 216 221 217 217 211 189 185 182 178 185 202 209
156 158 164 170 160 164 170 173 181 177 182 176 169 157 165 196 181 182 221 173 198 189 195 202 184 208 232 235 255 279 264 230 214 205 212 215 201 204 185 175 182 186 195
161 163 166 173 168 179 171 174 179 172 182 187 172 150 174 193 190 196 191 203 195 181 209 224 201 215 242 215 202 225 270 275 262 219 195 206 209 206 201 194 184 182 187
166 170 176 176 171 182 169 178 180 159 185 184 176 163 185 200 198 202 181 213 200 196 199 214 208 219 233 242 222 205 224 242 286 277 221 213 196 194 205 195 194 190 195
170 172 168 167 170 175 176 188 188 185 191 191 177 168 181 196 201 191 191 200 215 216 196 222 209 219 224 244 246 231 227 217 208 288 303 284 225 212 215 219 200 187 189
171 169 165 164 170 174 187 191 196 199 192 182 164 167 181 189 201 191 183 190 195 216 215 226 250 230 236 243 247 239 240 230 219 219 250 267 273 252 229 216 198 179 171
167 165 163 164 172 177 188 193 197 208 193 181 174 171 186 182 189 189 183 183 192 216 216 215 227 217 240 253 258 252 232 225 221 223 237 241 241 245 230 204 182 159 163